Messwerte Brownsville

Temperatur

Temperatur
°C
1575918000 13.00 13.00 28
1575921600 14.00 14.00 28
1575925200 15.00 15.00 27
1575928800 16.00 16.00 27
1575932400 17.00 17.00 26
1575936000 18.00 18.00 24
1575939600 19.00 19.00 24
1575943200 20.00 20.00 23
1575946800 21.00 21.00 22
1575950400 22.00 22.00
1575954000 23.00 23.00 23
1575957600 0.00 0.00
1575961200 1.00 1.00 23
1575964800 2.00 2.00 23
1575968400 3.00 3.00 23
1575972000 4.00 4.00 23
1575975600 5.00 5.00 23
1575979200 6.00 6.00 22
1575982800 7.00 7.00 22
1575986400 8.00 8.00 23
1575990000 9.00 9.00 23
1575993600 10.00 10.00
1575997200 11.00 11.00 15
1576000800 12.00 12.00 14

Aktuellste Messwerte

Wettercharakter
Wetter: bedeckt
Temperatur
13 °C
Feuchtigkeit
80 %
Wind
35 km/hWindrichtung: Nordwest
Böen
55 km/h
Luftdruck
1018 hPa
Messzeit: 10. Dezember 2019, 13.00Datenquelle: METAR

Weitere Messstationen in der Nähe

Messstation Temperatur Entfernung
Matamoros 13 °C 19 km
Port Isabel 13 °C 29 km
Harlingen 11 °C 41 km
Reynosa 12 °C 82 km
McAllen 12 °C 86 km
Edinburg 11 °C 91 km
Falfurrias 12 °C 159 km

Wind

Windrichtung Böen Mittelwind
° km/h km/h
1575918000 13.00 12.00 - 13.00 180° 55 40
1575921600 14.00 13.00 - 14.00 160° 60 45
1575925200 15.00 14.00 - 15.00 170° 65 45
1575928800 16.00 15.00 - 16.00 170° 55 40
1575932400 17.00 16.00 - 17.00 180° 55 35
1575936000 18.00 17.00 - 18.00 160° 45 30
1575939600 19.00 18.00 - 19.00 160° 25
1575943200 20.00 19.00 - 20.00 160° 20
1575946800 21.00 20.00 - 21.00 180° 15
1575950400 22.00 21.00 - 22.00
1575954000 23.00 22.00 - 23.00 170° 20
1575957600 0.00 23.00 - 0.00
1575961200 1.00 0.00 - 1.00 180° 20
1575964800 2.00 1.00 - 2.00 180° 20
1575968400 3.00 2.00 - 3.00 180° 15
1575972000 4.00 3.00 - 4.00 190° 5
1575975600 5.00 4.00 - 5.00 180° 5
1575979200 6.00 5.00 - 6.00 120° 5
1575982800 7.00 6.00 - 7.00 0
1575986400 8.00 7.00 - 8.00 0
1575990000 9.00 8.00 - 9.00 0
1575993600 10.00 9.00 - 10.00
1575997200 11.00 10.00 - 11.00 330° 50 30
1576000800 12.00 11.00 - 12.00 330° 50 25

Ihre Wetterstation

Fehlt Ihre Wetterstation auf unserem Portal?

Schreiben Sie an network@meteonews.ch

Klima

Wann ist es am wärmsten? Wann regnet es am wenigsten? Unsere Klimadaten geben Auskunft.